| time (UTC) | temp C | wind direction | speed KPH | gust KPH | rain 1hr cm | rain 24hr cm | rain mn cm | humidity % | barometer mb |
| 20260503185048 | 16 | 248 | 11.3 | 25.7 | 0.00 | 0.00 | 0.00 | 47 | 1010.5 |
| 20260503184522 | 16 | 209 | 9.7 | 25.7 | 0.00 | 0.00 | 0.00 | 49 | 1010.6 |
| 20260503184050 | 16 | 286 | 6.4 | 20.9 | 0.00 | 0.00 | 0.00 | 48 | 1010.6 |
| 20260503183527 | 15 | 186 | 8.0 | 25.7 | 0.00 | 0.00 | 0.00 | 47 | 1010.8 |
| 20260503183047 | 16 | 245 | 4.8 | 25.7 | 0.00 | 0.00 | 0.00 | 51 | 1010.6 |
| 20260503182530 | 16 | 298 | 6.4 | 33.8 | 0.00 | 0.00 | 0.00 | 48 | 1010.9 |
| 20260503182047 | 16 | 222 | 9.7 | 33.8 | 0.00 | 0.00 | 0.00 | 48 | 1011.0 |
| 20260503181528 | 15 | 295 | 9.7 | 27.4 | 0.00 | 0.00 | 0.00 | 51 | 1011.0 |
| 20260503181008 | 15 | 281 | 12.9 | 27.4 | 0.00 | 0.00 | 0.00 | 48 | 1011.2 |
| 20260503180528 | 15 | 236 | 9.7 | 27.4 | 0.00 | 0.00 | 0.00 | 44 | 1011.3 |
| 20260503180006 | 15 | 161 | 9.7 | 32.2 | 0.00 | 0.00 | 0.00 | 48 | 1011.4 |
| 20260503175525 | 16 | 253 | 12.9 | 32.2 | 0.00 | 0.00 | 0.00 | 46 | 1011.3 |
| 20260503175012 | 15 | 317 | 8.0 | 24.1 | 0.00 | 0.00 | 0.00 | 46 | 1011.4 |
| 20260503174547 | 15 | 273 | 4.8 | 27.4 | 0.00 | 0.00 | 0.00 | 50 | 1011.5 |
| 20260503174011 | 15 | 263 | 12.9 | 37.0 | 0.00 | 0.00 | 0.00 | 49 | 1011.6 |
| 20260503173544 | 15 | 262 | 8.0 | 37.0 | 0.00 | 0.00 | 0.00 | 51 | 1011.8 |
| 20260503173011 | 15 | 215 | 11.3 | 24.1 | 0.00 | 0.00 | 0.00 | 48 | 1011.8 |
| 20260503172544 | 15 | 241 | 8.0 | 29.0 | 0.00 | 0.00 | 0.00 | 50 | 1011.8 |
| 20260503172056 | 15 | 232 | 14.5 | 29.0 | 0.00 | 0.00 | 0.00 | 50 | 1012.0 |
| 20260503171534 | 15 | 275 | 8.0 | 30.6 | 0.00 | 0.00 | 0.00 | 51 | 1012.1 |
| 20260503171011 | 15 | 263 | 12.9 | 30.6 | 0.00 | 0.00 | 0.00 | 48 | 1012.1 |
| 20260503170528 | 15 | 282 | 4.8 | 24.1 | 0.00 | 0.00 | 0.00 | 54 | 1012.2 |
| 20260503150522 | 11 | 262 | 3.2 | 20.9 | 0.00 | 0.00 | 0.00 | 56 | 1013.4 |
| 20260503131043 | 10 | 248 | 8.0 | 27.4 | 0.00 | 0.00 | 0.00 | 58 | 1013.8 |
| 20260503130519 | 9 | 279 | 12.9 | 27.4 | 0.00 | 0.00 | 0.00 | 58 | 1013.8 |
| 20260503110553 | 2 | 257 | 0.0 | 8.0 | 0.00 | 0.00 | 0.00 | 74 | 1013.7 |
| 20260503081559 | 0 | 303 | 0.0 | 0.0 | 0.00 | 0.00 | 0.00 | 89 | 1014.5 |
| 20260503081035 | 0 | 303 | 0.0 | 0.0 | 0.00 | 0.00 | 0.00 | 89 | 1014.6 |
| 20260503080553 | 0 | 303 | 0.0 | 0.0 | 0.00 | 0.00 | 0.00 | 89 | 1014.5 |
| 20260503072513 | 0 | 303 | 0.0 | 0.0 | 0.00 | 0.00 | 0.00 | 90 | 1014.7 |
| 20260503072052 | 0 | 303 | 0.0 | 0.0 | 0.00 | 0.00 | 0.00 | 90 | 1014.8 |
| 20260503071521 | 0 | 303 | 0.0 | 0.0 | 0.00 | 0.00 | 0.00 | 90 | 1014.7 |
| 20260503071054 | 0 | 303 | 0.0 | 0.0 | 0.00 | 0.00 | 0.00 | 90 | 1014.8 |
| 20260503070535 | 0 | 303 | 0.0 | 0.0 | 0.00 | 0.00 | 0.00 | 90 | 1014.9 |
| 20260503055101 | 0 | 303 | 0.0 | 0.0 | 0.00 | 0.00 | 0.00 | 90 | 1015.3 |
| 20260503055001 | 0 | 303 | 0.0 | 0.0 | 0.00 | 0.00 | 0.00 | 90 | 1015.3 |
| 20260503054533 | 0 | 303 | 0.0 | 0.0 | 0.00 | 0.00 | 0.00 | 90 | 1015.4 |
| 20260503054059 | 0 | 303 | 0.0 | 0.0 | 0.00 | 0.00 | 0.00 | 89 | 1015.4 |
| 20260503054001 | 0 | 303 | 0.0 | 0.0 | 0.00 | 0.00 | 0.00 | 89 | 1015.4 |
| 20260503053521 | 0 | 303 | 0.0 | 0.0 | 0.00 | 0.00 | 0.00 | 89 | 1015.4 |
| 20260503053057 | 0 | 303 | 0.0 | 0.0 | 0.00 | 0.00 | 0.00 | 89 | 1015.5 |
| 20260503052544 | 0 | 303 | 0.0 | 0.0 | 0.00 | 0.00 | 0.00 | 89 | 1015.5 |
| 20260503052054 | 0 | 303 | 0.0 | 0.0 | 0.00 | 0.00 | 0.00 | 89 | 1015.5 |
| 20260503051536 | 0 | 303 | 0.0 | 0.0 | 0.00 | 0.00 | 0.00 | 89 | 1015.6 |
| 20260503051054 | 0 | 303 | 0.0 | 0.0 | 0.00 | 0.00 | 0.00 | 88 | 1015.6 |
| 20260503050536 | 0 | 303 | 0.0 | 0.0 | 0.00 | 0.00 | 0.00 | 88 | 1015.6 |
| 20260503050054 | 0 | 303 | 0.0 | 0.0 | 0.00 | 0.00 | 0.00 | 88 | 1015.6 |
| 20260503045535 | 0 | 303 | 0.0 | 0.0 | 0.00 | 0.00 | 0.00 | 88 | 1015.6 |
| 20260503045013 | 0 | 303 | 0.0 | 0.0 | 0.00 | 0.00 | 0.00 | 88 | 1015.7 |
| 20260503044535 | 0 | 303 | 0.0 | 0.0 | 0.00 | 0.00 | 0.00 | 89 | 1015.7 |
| 20260503044017 | 0 | 303 | 0.0 | 0.0 | 0.00 | 0.00 | 0.00 | 88 | 1015.6 |
| 20260503043549 | 0 | 303 | 0.0 | 0.0 | 0.00 | 0.00 | 0.00 | 88 | 1015.7 |
| 20260503043019 | 0 | 303 | 0.0 | 0.0 | 0.00 | 0.00 | 0.00 | 88 | 1015.7 |
| 20260503042546 | 0 | 303 | 0.0 | 0.0 | 0.00 | 0.00 | 0.00 | 88 | 1015.7 |
| 20260503042024 | 0 | 303 | 0.0 | 0.0 | 0.00 | 0.00 | 0.00 | 88 | 1015.6 |
| 20260503041546 | 0 | 303 | 0.0 | 0.0 | 0.00 | 0.00 | 0.00 | 88 | 1015.7 |
| 20260503041027 | 0 | 303 | 0.0 | 0.0 | 0.00 | 0.00 | 0.00 | 88 | 1015.7 |
| 20260503040558 | 0 | 303 | 0.0 | 0.0 | 0.00 | 0.00 | 0.00 | 87 | 1015.7 |
| 20260503040038 | 0 | 303 | 0.0 | 0.0 | 0.00 | 0.00 | 0.00 | 87 | 1015.7 |
| 20260503035549 | 0 | 303 | 0.0 | 0.0 | 0.00 | 0.00 | 0.00 | 87 | 1015.7 |
| 20260503035030 | 0 | 303 | 0.0 | 0.0 | 0.00 | 0.00 | 0.00 | 86 | 1015.8 |
| 20260503034554 | 0 | 303 | 0.0 | 0.0 | 0.00 | 0.00 | 0.00 | 86 | 1015.8 |
| 20260503034036 | 0 | 303 | 0.0 | 0.0 | 0.00 | 0.00 | 0.00 | 86 | 1015.9 |
| 20260503033551 | 0 | 303 | 0.0 | 0.0 | 0.00 | 0.00 | 0.00 | 86 | 1015.8 |
| 20260503033034 | 0 | 303 | 0.0 | 0.0 | 0.00 | 0.00 | 0.00 | 86 | 1015.9 |
| 20260503032551 | 0 | 303 | 0.0 | 0.0 | 0.00 | 0.00 | 0.00 | 85 | 1015.9 |
| 20260503032029 | 0 | 303 | 0.0 | 0.0 | 0.00 | 0.00 | 0.00 | 85 | 1015.9 |
| 20260503031503 | 0 | 303 | 0.0 | 0.0 | 0.00 | 0.00 | 0.00 | 84 | 1016.0 |
| 20260503031044 | 0 | 303 | 0.0 | 0.0 | 0.00 | 0.00 | 0.00 | 84 | 1015.9 |
| 20260503030519 | 0 | 303 | 0.0 | 0.0 | 0.00 | 0.00 | 0.00 | 83 | 1016.0 |
| 20260503030055 | 1 | 303 | 0.0 | 0.0 | 0.00 | 0.00 | 0.00 | 83 | 1016.0 |
| 20260503025519 | 1 | 303 | 0.0 | 0.0 | 0.00 | 0.00 | 0.00 | 82 | 1015.9 |
| 20260503025055 | 1 | 303 | 0.0 | 0.0 | 0.00 | 0.00 | 0.00 | 82 | 1015.9 |
| 20260503024521 | 1 | 303 | 0.0 | 0.0 | 0.00 | 0.00 | 0.00 | 81 | 1016.0 |
| 20260503024004 | 1 | 303 | 0.0 | 0.0 | 0.00 | 0.00 | 0.00 | 81 | 1016.1 |
| 20260503023527 | 1 | 303 | 0.0 | 0.0 | 0.00 | 0.00 | 0.00 | 81 | 1016.0 |
| 20260503023110 | 1 | 303 | 0.0 | 0.0 | 0.00 | 0.00 | 0.00 | 80 | 1016.0 |
| 20260503023001 | 1 | 303 | 0.0 | 0.0 | 0.00 | 0.00 | 0.00 | 80 | 1016.0 |
| 20260503022523 | 2 | 303 | 0.0 | 0.0 | 0.00 | 0.00 | 0.00 | 80 | 1016.0 |
| 20260503022059 | 2 | 303 | 0.0 | 0.0 | 0.00 | 0.00 | 0.00 | 79 | 1016.0 |
| 20260503022001 | 2 | 303 | 0.0 | 0.0 | 0.00 | 0.00 | 0.00 | 79 | 1016.0 |
| 20260503021542 | 2 | 303 | 0.0 | 0.0 | 0.00 | 0.00 | 0.00 | 77 | 1016.0 |
| 20260503021059 | 2 | 303 | 0.0 | 0.0 | 0.00 | 0.00 | 0.00 | 76 | 1016.0 |
| 20260503021002 | 2 | 303 | 0.0 | 0.0 | 0.00 | 0.00 | 0.00 | 76 | 1016.0 |
| 20260503020540 | 2 | 303 | 0.0 | 0.0 | 0.00 | 0.00 | 0.00 | 76 | 1016.0 |
| 20260503020019 | 2 | 303 | 0.0 | 0.0 | 0.00 | 0.00 | 0.00 | 74 | 1016.0 |
| 20260503015546 | 3 | 303 | 0.0 | 0.0 | 0.00 | 0.00 | 0.00 | 73 | 1015.9 |
| 20260503015022 | 3 | 303 | 0.0 | 0.0 | 0.00 | 0.00 | 0.00 | 72 | 1015.9 |
| 20260503014535 | 3 | 303 | 0.0 | 0.0 | 0.00 | 0.00 | 0.00 | 69 | 1015.8 |
| 20260503014011 | 3 | 303 | 0.0 | 0.0 | 0.00 | 0.00 | 0.00 | 72 | 1015.7 |
| 20260503013531 | 3 | 303 | 0.0 | 0.0 | 0.00 | 0.00 | 0.00 | 74 | 1015.7 |
| 20260503013012 | 4 | 303 | 0.0 | 0.0 | 0.00 | 0.00 | 0.00 | 74 | 1015.7 |
| 20260503012535 | 4 | 303 | 0.0 | 0.0 | 0.00 | 0.00 | 0.00 | 70 | 1015.7 |
| 20260503012014 | 5 | 303 | 0.0 | 0.0 | 0.00 | 0.00 | 0.00 | 68 | 1015.7 |
| 20260503011547 | 5 | 303 | 0.0 | 0.0 | 0.00 | 0.00 | 0.00 | 70 | 1015.7 |
| 20260503011021 | 5 | 303 | 0.0 | 0.0 | 0.00 | 0.00 | 0.00 | 66 | 1015.7 |
| 20260503010559 | 6 | 303 | 0.0 | 0.0 | 0.00 | 0.00 | 0.00 | 59 | 1015.6 |
| 20260503010507 | 6 | 303 | 0.0 | 0.0 | 0.00 | 0.00 | 0.00 | 58 | 1015.6 |
| 20260503010048 | 6 | 303 | 0.0 | 0.0 | 0.00 | 0.00 | 0.00 | 56 | 1015.6 |
| 20260503005503 | 6 | 303 | 0.0 | 0.0 | 0.00 | 0.00 | 0.00 | 54 | 1015.6 |
| 20260503005036 | 6 | 303 | 0.0 | 0.0 | 0.00 | 0.00 | 0.00 | 53 | 1015.5 |
| 20260503004508 | 6 | 303 | 0.0 | 0.0 | 0.00 | 0.00 | 0.00 | 53 | 1015.4 |
| 20260503004039 | 7 | 303 | 0.0 | 3.2 | 0.00 | 0.00 | 0.00 | 53 | 1015.5 |
| 20260503003517 | 7 | 303 | 0.0 | 6.4 | 0.00 | 0.00 | 0.00 | 52 | 1015.4 |
| 20260503003055 | 7 | 303 | 0.0 | 6.4 | 0.00 | 0.00 | 0.00 | 52 | 1015.5 |
| 20260503002533 | 7 | 310 | 0.0 | 9.7 | 0.00 | 0.00 | 0.00 | 51 | 1015.5 |
| 20260503002015 | 7 | 311 | 0.0 | 9.7 | 0.00 | 0.00 | 0.00 | 52 | 1015.5 |
| 20260503001533 | 7 | 285 | 0.0 | 3.2 | 0.00 | 0.00 | 0.00 | 51 | 1015.4 |
| 20260503001011 | 7 | 304 | 0.0 | 4.8 | 0.00 | 0.00 | 0.00 | 49 | 1015.4 |
| 20260503000532 | 8 | 306 | 0.0 | 8.0 | 0.00 | 0.00 | 0.00 | 50 | 1015.3 |
| 20260503000051 | 8 | 310 | 1.6 | 9.7 | 0.00 | 0.00 | 0.00 | 50 | 1015.3 |
| 20260502235535 | 8 | 259 | 3.2 | 11.3 | 0.00 | 0.00 | 0.00 | 48 | 1015.3 |
| 20260502235047 | 8 | 315 | 0.0 | 12.9 | 0.00 | 0.00 | 0.00 | 48 | 1015.3 |
| 20260502234534 | 8 | 283 | 4.8 | 14.5 | 0.00 | 0.00 | 0.00 | 47 | 1015.3 |
| 20260502234057 | 8 | 318 | 3.2 | 14.5 | 0.00 | 0.00 | 0.00 | 48 | 1015.3 |
| 20260502233515 | 8 | 302 | 4.8 | 12.9 | 0.00 | 0.00 | 0.00 | 48 | 1015.3 |
| 20260502233051 | 8 | 259 | 4.8 | 11.3 | 0.00 | 0.00 | 0.00 | 48 | 1015.3 |
| 20260502232530 | 8 | 288 | 1.6 | 11.3 | 0.00 | 0.00 | 0.00 | 48 | 1015.3 |
| 20260502232017 | 8 | 317 | 4.8 | 14.5 | 0.00 | 0.00 | 0.00 | 48 | 1015.4 |
| 20260502231600 | 9 | 323 | 3.2 | 14.5 | 0.00 | 0.00 | 0.00 | 49 | 1015.4 |
| 20260502231007 | 9 | 318 | 4.8 | 11.3 | 0.00 | 0.00 | 0.00 | 49 | 1015.4 |
| 20260502230527 | 9 | 252 | 3.2 | 11.3 | 0.00 | 0.00 | 0.00 | 47 | 1015.3 |
| 20260502230011 | 9 | 304 | 1.6 | 9.7 | 0.00 | 0.00 | 0.00 | 47 | 1015.3 |
| 20260502225544 | 9 | 295 | 4.8 | 12.9 | 0.00 | 0.00 | 0.00 | 49 | 1015.4 |
| 20260502225019 | 9 | 253 | 0.0 | 12.9 | 0.00 | 0.00 | 0.00 | 49 | 1015.4 |
| 20260502224537 | 9 | 298 | 4.8 | 12.9 | 0.00 | 0.00 | 0.00 | 47 | 1015.4 |
| 20260502224015 | 9 | 288 | 6.4 | 12.9 | 0.00 | 0.00 | 0.00 | 49 | 1015.5 |
| 20260502223535 | 9 | 315 | 1.6 | 16.1 | 0.00 | 0.00 | 0.00 | 51 | 1015.5 |
| 20260502223017 | 8 | 294 | 3.2 | 16.1 | 0.00 | 0.00 | 0.00 | 50 | 1015.6 |
| 20260502222553 | 8 | 284 | 3.2 | 11.3 | 0.00 | 0.00 | 0.00 | 52 | 1015.6 |
| 20260502222012 | 8 | 282 | 1.6 | 11.3 | 0.00 | 0.00 | 0.00 | 52 | 1015.6 |
| 20260502221543 | 8 | 309 | 1.6 | 11.3 | 0.00 | 0.00 | 0.00 | 51 | 1015.6 |
| 20260502221003 | 8 | 315 | 0.0 | 14.5 | 0.00 | 0.00 | 0.00 | 53 | 1015.5 |
| 20260502220541 | 9 | 323 | 6.4 | 14.5 | 0.00 | 0.00 | 0.00 | 50 | 1015.5 |
| 20260502220012 | 9 | 323 | 3.2 | 17.7 | 0.00 | 0.00 | 0.00 | 51 | 1015.5 |
| 20260502215543 | 9 | 229 | 4.8 | 17.7 | 0.00 | 0.00 | 0.00 | 49 | 1015.6 |
| 20260502215022 | 8 | 279 | 1.6 | 16.1 | 0.00 | 0.00 | 0.00 | 52 | 1015.5 |
| 20260502214544 | 8 | 317 | 8.0 | 16.1 | 0.00 | 0.00 | 0.00 | 53 | 1015.6 |
| 20260502214022 | 8 | 286 | 0.0 | 17.7 | 0.00 | 0.00 | 0.00 | 54 | 1015.6 |
| 20260502213543 | 8 | 288 | 6.4 | 17.7 | 0.00 | 0.00 | 0.00 | 52 | 1015.6 |
| 20260502213019 | 8 | 248 | 1.6 | 16.1 | 0.00 | 0.00 | 0.00 | 50 | 1015.6 |
| 20260502212541 | 8 | 296 | 4.8 | 16.1 | 0.00 | 0.00 | 0.00 | 53 | 1015.6 |
| 20260502212019 | 8 | 291 | 0.0 | 11.3 | 0.00 | 0.00 | 0.00 | 56 | 1015.7 |
| 20260502211545 | 8 | 300 | 3.2 | 11.3 | 0.00 | 0.00 | 0.00 | 55 | 1015.7 |
| 20260502211026 | 8 | 291 | 0.0 | 8.0 | 0.00 | 0.00 | 0.00 | 56 | 1015.7 |
| 20260502210504 | 8 | 272 | 0.0 | 8.0 | 0.00 | 0.00 | 0.00 | 53 | 1015.8 |
| 20260502210044 | 7 | 316 | 1.6 | 11.3 | 0.00 | 0.00 | 0.00 | 55 | 1015.8 |
| 20260502205514 | 7 | 319 | 1.6 | 11.3 | 0.00 | 0.00 | 0.00 | 54 | 1015.8 |
| 20260502205044 | 7 | 275 | 4.8 | 11.3 | 0.00 | 0.00 | 0.00 | 53 | 1015.8 |
| 20260502204522 | 7 | 314 | 3.2 | 17.7 | 0.00 | 0.00 | 0.00 | 53 | 1015.9 |
| 20260502204006 | 7 | 317 | 1.6 | 11.3 | 0.00 | 0.00 | 0.00 | 54 | 1015.8 |
| 20260502203524 | 7 | 296 | 3.2 | 22.5 | 0.00 | 0.00 | 0.00 | 49 | 1015.9 |
| 20260502203007 | 8 | 306 | 6.4 | 22.5 | 0.00 | 0.00 | 0.00 | 50 | 1015.9 |
| 20260502202544 | 8 | 15 | 3.2 | 19.3 | 0.00 | 0.00 | 0.00 | 50 | 1015.9 |
| 20260502202056 | 8 | 327 | 4.8 | 16.1 | 0.00 | 0.00 | 0.00 | 52 | 1016.1 |
| 20260502201545 | 8 | 316 | 3.2 | 17.7 | 0.00 | 0.00 | 0.00 | 49 | 1016.1 |
| 20260502201012 | 8 | 323 | 6.4 | 17.7 | 0.00 | 0.00 | 0.00 | 51 | 1016.2 |
| 20260502200545 | 7 | 325 | 8.0 | 16.1 | 0.00 | 0.00 | 0.00 | 51 | 1016.2 |
| 20260502200100 | 7 | 291 | 6.4 | 14.5 | 0.00 | 0.00 | 0.00 | 51 | 1016.2 |
| 20260502200001 | 7 | 304 | 4.8 | 14.5 | 0.00 | 0.00 | 0.00 | 51 | 1016.2 |
| 20260502195538 | 7 | 9 | 4.8 | 14.5 | 0.00 | 0.00 | 0.00 | 50 | 1016.2 |
| 20260502195056 | 8 | 355 | 1.6 | 12.9 | 0.00 | 0.00 | 0.00 | 49 | 1016.3 |
| 20260502194538 | 8 | 299 | 4.8 | 12.9 | 0.00 | 0.00 | 0.00 | 53 | 1016.3 |
| 20260502194016 | 8 | 291 | 3.2 | 11.3 | 0.00 | 0.00 | 0.00 | 51 | 1016.4 |
| 20260502193538 | 8 | 318 | 0.0 | 12.9 | 0.00 | 0.00 | 0.00 | 54 | 1016.5 |
| 20260502193014 | 8 | 333 | 1.6 | 12.9 | 0.00 | 0.00 | 0.00 | 53 | 1016.4 |
| 20260502192537 | 8 | 336 | 3.2 | 11.3 | 0.00 | 0.00 | 0.00 | 52 | 1016.5 |
| 20260502192011 | 8 | 317 | 3.2 | 16.1 | 0.00 | 0.00 | 0.00 | 52 | 1016.5 |
| 20260502191529 | 8 | 320 | 4.8 | 16.1 | 0.00 | 0.00 | 0.00 | 53 | 1016.5 |
| 20260502191004 | 7 | 284 | 4.8 | 16.1 | 0.00 | 0.00 | 0.00 | 53 | 1016.6 |
| 20260502190524 | 7 | 266 | 3.2 | 14.5 | 0.00 | 0.00 | 0.00 | 52 | 1016.7 |
| 20260502190059 | 7 | 334 | 3.2 | 9.7 | 0.00 | 0.00 | 0.00 | 52 | 1016.8 |
| 20260502185540 | 7 | 317 | 3.2 | 12.9 | 0.00 | 0.00 | 0.00 | 52 | 1016.8 |